Location: Gro� Glienicke
(52.4675°N, 13.1079°E)
Time: 02:59:30
(UTC+00:00)

ERS-1 Rocket - Pass Details

Date: 06 July 2020
Orbit: 752 x 758 km, 98.5° (Epoch: 04 August)

Event Time Altitude Azimuth Distance (km) Brightness Sun altitude
Exits shadow 20:16:48 - 156° (SSE) 2,649 5.2 -5.8°
Reaches altitude 10° 20:17:42 10° 156° (SSE) 2,286 4.8 -5.9°
Maximum altitude 20:22:43 75° 72° (ENE) 790 3.1 -6.4°
Drops below altitude 10° 20:27:47 10° 348° (NNW) 2,300 6.7 -6.8°
Sets 20:30:05 0° 346° (NNW) 3,229 7.7 -7.0°
